owner,sensor,date,latitude,longitude,relative_humidity,qcFlag 
COMPS,ioos:station:USF.COMPS:C12:1,2017-03-01T00:05:00Z,27.4980,-83.7220,100.08,1111122 
COMPS,ioos:station:USF.COMPS:C12:1,2017-03-01T00:35:00Z,27.4980,-83.7220,100.07,1111122 
COMPS,ioos:station:USF.COMPS:C12:1,2017-03-01T01:05:00Z,27.4980,-83.7220,100.08,1111122 
COMPS,ioos:station:USF.COMPS:C12:1,2017-03-01T01:35:00Z,27.4980,-83.7220,100.07,1111122 
COMPS,ioos:station:USF.COMPS:C12:1,2017-03-01T02:05:00Z,27.4980,-83.7220,100.08,1111122 
COMPS,ioos:station:USF.COMPS:C12:1,2017-03-01T02:35:00Z,27.4980,-83.7220,100.08,1111122 
COMPS,ioos:station:USF.COMPS:C12:1,2017-03-01T03:05:00Z,27.4980,-83.7220,100.08,1111122 
COMPS,ioos:station:USF.COMPS:C12:1,2017-03-01T03:35:00Z,27.4980,-83.7220,100.09,1111122 
COMPS,ioos:station:USF.COMPS:C12:1,2017-03-01T04:05:00Z,27.4980,-83.7220,100.08,1111122 
COMPS,ioos:station:USF.COMPS:C12:1,2017-03-01T04:35:00Z,27.4980,-83.7220,100.07,1111122 
COMPS,ioos:station:USF.COMPS:C12:1,2017-03-01T05:05:00Z,27.4980,-83.7220,100.09,1111122 
COMPS,ioos:station:USF.COMPS:C12:1,2017-03-01T05:35:00Z,27.4980,-83.7220,100.08,1111122 
COMPS,ioos:station:USF.COMPS:C12:1,2017-03-01T06:05:00Z,27.4980,-83.7220,100.1,1111122 
COMPS,ioos:station:USF.COMPS:C12:1,2017-03-01T06:35:00Z,27.4980,-83.7220,100.08,1111122 
COMPS,ioos:station:USF.COMPS:C12:1,2017-03-01T07:05:00Z,27.4980,-83.7220,100.09,1111122 
COMPS,ioos:station:USF.COMPS:C12:1,2017-03-01T07:35:00Z,27.4980,-83.7220,100.1,1111122 
COMPS,ioos:station:USF.COMPS:C12:1,2017-03-01T08:05:00Z,27.4980,-83.7220,100.09,1111122 
COMPS,ioos:station:USF.COMPS:C12:1,2017-03-01T08:35:00Z,27.4980,-83.7220,100.09,1111122 
COMPS,ioos:station:USF.COMPS:C12:1,2017-03-01T09:05:00Z,27.4980,-83.7220,100.08,1111122 
COMPS,ioos:station:USF.COMPS:C12:1,2017-03-01T09:35:00Z,27.4980,-83.7220,100.08,1111122 
COMPS,ioos:station:USF.COMPS:C12:1,2017-03-01T10:05:00Z,27.4980,-83.7220,100.08,1111122 
COMPS,ioos:station:USF.COMPS:C12:1,2017-03-01T10:35:00Z,27.4980,-83.7220,100.09,1111122 
COMPS,ioos:station:USF.COMPS:C12:1,2017-03-01T11:05:00Z,27.4980,-83.7220,100.06,1111122 
COMPS,ioos:station:USF.COMPS:C12:1,2017-03-01T11:35:00Z,27.4980,-83.7220,100.08,1111122 
COMPS,ioos:station:USF.COMPS:C12:1,2017-03-01T12:05:00Z,27.4980,-83.7220,100.09,1111122 
COMPS,ioos:station:USF.COMPS:C12:1,2017-03-01T12:35:00Z,27.4980,-83.7220,100.08,1111122 
COMPS,ioos:station:USF.COMPS:C12:1,2017-03-01T13:05:00Z,27.4980,-83.7220,100.08,1111122 
COMPS,ioos:station:USF.COMPS:C12:1,2017-03-01T13:35:00Z,27.4980,-83.7220,100.09,1111122 
COMPS,ioos:station:USF.COMPS:C12:1,2017-03-01T14:05:00Z,27.4980,-83.7220,100.08,1111122 
COMPS,ioos:station:USF.COMPS:C12:1,2017-03-01T14:35:00Z,27.4980,-83.7220,100.07,1111122 
COMPS,ioos:station:USF.COMPS:C12:1,2017-03-01T15:05:00Z,27.4980,-83.7220,100.08,1111122 
COMPS,ioos:station:USF.COMPS:C12:1,2017-03-01T15:35:00Z,27.4980,-83.7220,100.08,1111122 
COMPS,ioos:station:USF.COMPS:C12:1,2017-03-01T16:05:00Z,27.4980,-83.7220,100.07,1111122 
COMPS,ioos:station:USF.COMPS:C12:1,2017-03-01T16:35:00Z,27.4980,-83.7220,100.08,1111122 
COMPS,ioos:station:USF.COMPS:C12:1,2017-03-01T17:05:00Z,27.4980,-83.7220,100.08,1111122 
COMPS,ioos:station:USF.COMPS:C12:1,2017-03-01T17:35:00Z,27.4980,-83.7220,100.08,1111122 
COMPS,ioos:station:USF.COMPS:C12:1,2017-03-01T18:05:00Z,27.4980,-83.7220,100.08,1111122 
COMPS,ioos:station:USF.COMPS:C12:1,2017-03-01T18:35:00Z,27.4980,-83.7220,100.07,1111122 
COMPS,ioos:station:USF.COMPS:C12:1,2017-03-01T19:05:00Z,27.4980,-83.7220,100.1,1111122 
COMPS,ioos:station:USF.COMPS:C12:1,2017-03-01T19:35:00Z,27.4980,-83.7220,100.09,1111122 
COMPS,ioos:station:USF.COMPS:C12:1,2017-03-01T20:05:00Z,27.4980,-83.7220,100.07,1111122 
COMPS,ioos:station:USF.COMPS:C12:1,2017-03-01T20:35:00Z,27.4980,-83.7220,100.08,1111122 
COMPS,ioos:station:USF.COMPS:C12:1,2017-03-01T21:05:00Z,27.4980,-83.7220,100.08,1111122 
COMPS,ioos:station:USF.COMPS:C12:1,2017-03-01T21:35:00Z,27.4980,-83.7220,100.06,1111122 
COMPS,ioos:station:USF.COMPS:C12:1,2017-03-01T22:05:00Z,27.4980,-83.7220,100.07,1111122 
COMPS,ioos:station:USF.COMPS:C12:1,2017-03-01T22:35:00Z,27.4980,-83.7220,100.06,1111122 
COMPS,ioos:station:USF.COMPS:C12:1,2017-03-01T23:05:00Z,27.4980,-83.7220,100.06,1111122 
COMPS,ioos:station:USF.COMPS:C12:1,2017-03-01T23:35:00Z,27.4980,-83.7220,100.08,1111122 
COMPS,ioos:station:USF.COMPS:C12:1,2017-03-02T00:05:00Z,27.4980,-83.7220,100.09,1111122 
COMPS,ioos:station:USF.COMPS:C12:1,2017-03-02T00:35:00Z,27.4980,-83.7220,100.07,1111122 
COMPS,ioos:station:USF.COMPS:C12:1,2017-03-02T01:05:00Z,27.4980,-83.7220,100.08,1111122 
COMPS,ioos:station:USF.COMPS:C12:1,2017-03-02T01:35:00Z,27.4980,-83.7220,100.09,1111122 
COMPS,ioos:station:USF.COMPS:C12:1,2017-03-02T02:05:00Z,27.4980,-83.7220,100.09,1111122 
COMPS,ioos:station:USF.COMPS:C12:1,2017-03-02T02:35:00Z,27.4980,-83.7220,100.09,1111122 
COMPS,ioos:station:USF.COMPS:C12:1,2017-03-02T03:05:00Z,27.4980,-83.7220,100.07,1111122 
COMPS,ioos:station:USF.COMPS:C12:1,2017-03-02T03:35:00Z,27.4980,-83.7220,100.07,1111122 
COMPS,ioos:station:USF.COMPS:C12:1,2017-03-02T04:05:00Z,27.4980,-83.7220,100.08,1111122 
COMPS,ioos:station:USF.COMPS:C12:1,2017-03-02T04:35:00Z,27.4980,-83.7220,100.06,1111122 
COMPS,ioos:station:USF.COMPS:C12:1,2017-03-02T05:05:00Z,27.4980,-83.7220,100.08,1111122 
COMPS,ioos:station:USF.COMPS:C12:1,2017-03-02T05:35:00Z,27.4980,-83.7220,100.07,1111122 
COMPS,ioos:station:USF.COMPS:C12:1,2017-03-02T06:05:00Z,27.4980,-83.7220,100.08,1111122 
COMPS,ioos:station:USF.COMPS:C12:1,2017-03-02T06:35:00Z,27.4980,-83.7220,100.08,1111122 
COMPS,ioos:station:USF.COMPS:C12:1,2017-03-02T07:05:00Z,27.4980,-83.7220,100.07,1111122 
COMPS,ioos:station:USF.COMPS:C12:1,2017-03-02T07:35:00Z,27.4980,-83.7220,100.07,1111122 
COMPS,ioos:station:USF.COMPS:C12:1,2017-03-02T08:05:00Z,27.4980,-83.7220,100.06,1111122 
COMPS,ioos:station:USF.COMPS:C12:1,2017-03-02T08:35:00Z,27.4980,-83.7220,100.07,1111122 
COMPS,ioos:station:USF.COMPS:C12:1,2017-03-02T09:05:00Z,27.4980,-83.7220,100.09,1111122 
COMPS,ioos:station:USF.COMPS:C12:1,2017-03-02T09:35:00Z,27.4980,-83.7220,100.1,1111122 
COMPS,ioos:station:USF.COMPS:C12:1,2017-03-02T10:05:00Z,27.4980,-83.7220,100.09,1111122 
COMPS,ioos:station:USF.COMPS:C12:1,2017-03-02T10:35:00Z,27.4980,-83.7220,100.07,1111122 
COMPS,ioos:station:USF.COMPS:C12:1,2017-03-02T11:05:00Z,27.4980,-83.7220,100.09,1111122 
COMPS,ioos:station:USF.COMPS:C12:1,2017-03-02T11:35:00Z,27.4980,-83.7220,100.07,1111122 
COMPS,ioos:station:USF.COMPS:C12:1,2017-03-02T12:05:00Z,27.4980,-83.7220,100.08,1111122 
COMPS,ioos:station:USF.COMPS:C12:1,2017-03-02T12:35:00Z,27.4980,-83.7220,100.07,1111122 
COMPS,ioos:station:USF.COMPS:C12:1,2017-03-02T13:05:00Z,27.4980,-83.7220,100.09,1111122 
COMPS,ioos:station:USF.COMPS:C12:1,2017-03-02T13:35:00Z,27.4980,-83.7220,100.07,1111122 
COMPS,ioos:station:USF.COMPS:C12:1,2017-03-02T15:05:00Z,27.4980,-83.7220,100.07,1111122 
COMPS,ioos:station:USF.COMPS:C12:1,2017-03-02T15:35:00Z,27.4980,-83.7220,100.07,1111122 
COMPS,ioos:station:USF.COMPS:C12:1,2017-03-02T16:05:00Z,27.4980,-83.7220,100.07,1111122 
COMPS,ioos:station:USF.COMPS:C12:1,2017-03-02T16:35:00Z,27.4980,-83.7220,100.08,1111122 
COMPS,ioos:station:USF.COMPS:C12:1,2017-03-02T17:05:00Z,27.4980,-83.7220,100.07,1111122 
COMPS,ioos:station:USF.COMPS:C12:1,2017-03-02T17:35:00Z,27.4980,-83.7220,100.07,1111122 
COMPS,ioos:station:USF.COMPS:C12:1,2017-03-02T18:05:00Z,27.4980,-83.7220,100.07,1111122 
COMPS,ioos:station:USF.COMPS:C12:1,2017-03-02T18:35:00Z,27.4980,-83.7220,100.1,1111122 
COMPS,ioos:station:USF.COMPS:C12:1,2017-03-02T19:05:00Z,27.4980,-83.7220,100.07,1111122 
COMPS,ioos:station:USF.COMPS:C12:1,2017-03-02T19:35:00Z,27.4980,-83.7220,100.09,1111122 
COMPS,ioos:station:USF.COMPS:C12:1,2017-03-02T20:05:00Z,27.4980,-83.7220,100.08,1111122 
COMPS,ioos:station:USF.COMPS:C12:1,2017-03-02T20:35:00Z,27.4980,-83.7220,100.08,1111122 
COMPS,ioos:station:USF.COMPS:C12:1,2017-03-02T21:05:00Z,27.4980,-83.7220,100.09,1111122 
COMPS,ioos:station:USF.COMPS:C12:1,2017-03-02T21:35:00Z,27.4980,-83.7220,100.09,1111122 
COMPS,ioos:station:USF.COMPS:C12:1,2017-03-02T22:05:00Z,27.4980,-83.7220,100.08,1111122 
COMPS,ioos:station:USF.COMPS:C12:1,2017-03-02T22:35:00Z,27.4980,-83.7220,100.06,1111122 
COMPS,ioos:station:USF.COMPS:C12:1,2017-03-02T23:05:00Z,27.4980,-83.7220,100.07,1111122 
COMPS,ioos:station:USF.COMPS:C12:1,2017-03-02T23:35:00Z,27.4980,-83.7220,100.08,1111122 
COMPS,ioos:station:USF.COMPS:C12:1,2017-03-03T00:05:00Z,27.4980,-83.7220,100.09,1111122 
COMPS,ioos:station:USF.COMPS:C12:1,2017-03-03T00:35:00Z,27.4980,-83.7220,100.08,1111122 
COMPS,ioos:station:USF.COMPS:C12:1,2017-03-03T01:05:00Z,27.4980,-83.7220,100.09,1111122 
COMPS,ioos:station:USF.COMPS:C12:1,2017-03-03T01:35:00Z,27.4980,-83.7220,100.08,1111122 
COMPS,ioos:station:USF.COMPS:C12:1,2017-03-03T02:05:00Z,27.4980,-83.7220,100.08,1111122 
COMPS,ioos:station:USF.COMPS:C12:1,2017-03-03T02:35:00Z,27.4980,-83.7220,100.08,1111122 
COMPS,ioos:station:USF.COMPS:C12:1,2017-03-03T03:05:00Z,27.4980,-83.7220,100.07,1111122 
COMPS,ioos:station:USF.COMPS:C12:1,2017-03-03T03:35:00Z,27.4980,-83.7220,100.08,1111122 
COMPS,ioos:station:USF.COMPS:C12:1,2017-03-03T04:05:00Z,27.4980,-83.7220,100.07,1111122 
COMPS,ioos:station:USF.COMPS:C12:1,2017-03-03T04:35:00Z,27.4980,-83.7220,100.07,1111122 
COMPS,ioos:station:USF.COMPS:C12:1,2017-03-03T05:05:00Z,27.4980,-83.7220,100.09,1111122 
COMPS,ioos:station:USF.COMPS:C12:1,2017-03-03T05:35:00Z,27.4980,-83.7220,100.08,1111122 
COMPS,ioos:station:USF.COMPS:C12:1,2017-03-03T06:05:00Z,27.4980,-83.7220,100.09,1111122 
COMPS,ioos:station:USF.COMPS:C12:1,2017-03-03T06:35:00Z,27.4980,-83.7220,100.08,1111122 
COMPS,ioos:station:USF.COMPS:C12:1,2017-03-03T07:05:00Z,27.4980,-83.7220,100.08,1111122 
COMPS,ioos:station:USF.COMPS:C12:1,2017-03-03T07:35:00Z,27.4980,-83.7220,100.08,1111122 
COMPS,ioos:station:USF.COMPS:C12:1,2017-03-03T08:05:00Z,27.4980,-83.7220,100.06,1111122 
COMPS,ioos:station:USF.COMPS:C12:1,2017-03-03T08:35:00Z,27.4980,-83.7220,100.07,1111122 
COMPS,ioos:station:USF.COMPS:C12:1,2017-03-03T09:05:00Z,27.4980,-83.7220,100.08,1111122 
COMPS,ioos:station:USF.COMPS:C12:1,2017-03-03T09:35:00Z,27.4980,-83.7220,100.08,1111122 
COMPS,ioos:station:USF.COMPS:C12:1,2017-03-03T10:05:00Z,27.4980,-83.7220,100.06,1111122 
COMPS,ioos:station:USF.COMPS:C12:1,2017-03-03T10:35:00Z,27.4980,-83.7220,100.06,1111122 
COMPS,ioos:station:USF.COMPS:C12:1,2017-03-03T11:05:00Z,27.4980,-83.7220,100.09,1111122 
COMPS,ioos:station:USF.COMPS:C12:1,2017-03-03T11:35:00Z,27.4980,-83.7220,100.08,1111122 
COMPS,ioos:station:USF.COMPS:C12:1,2017-03-03T12:05:00Z,27.4980,-83.7220,100.08,1111122 
COMPS,ioos:station:USF.COMPS:C12:1,2017-03-03T12:35:00Z,27.4980,-83.7220,100.07,1111122 
COMPS,ioos:station:USF.COMPS:C12:1,2017-03-03T13:05:00Z,27.4980,-83.7220,100.07,1111122 
COMPS,ioos:station:USF.COMPS:C12:1,2017-03-03T13:35:00Z,27.4980,-83.7220,100.07,1111122 
COMPS,ioos:station:USF.COMPS:C12:1,2017-03-03T14:05:00Z,27.4980,-83.7220,100.07,1111122 
COMPS,ioos:station:USF.COMPS:C12:1,2017-03-03T14:35:00Z,27.4980,-83.7220,100.08,1111122 
COMPS,ioos:station:USF.COMPS:C12:1,2017-03-03T15:05:00Z,27.4980,-83.7220,100.08,1111122 
COMPS,ioos:station:USF.COMPS:C12:1,2017-03-03T15:35:00Z,27.4980,-83.7220,100.08,1111122 
COMPS,ioos:station:USF.COMPS:C12:1,2017-03-03T16:05:00Z,27.4980,-83.7220,100.08,1111122 
COMPS,ioos:station:USF.COMPS:C12:1,2017-03-03T16:35:00Z,27.4980,-83.7220,100.08,1111122 
COMPS,ioos:station:USF.COMPS:C12:1,2017-03-03T17:05:00Z,27.4980,-83.7220,100.07,1111122 
COMPS,ioos:station:USF.COMPS:C12:1,2017-03-03T17:35:00Z,27.4980,-83.7220,100.07,1111122 
COMPS,ioos:station:USF.COMPS:C12:1,2017-03-03T18:05:00Z,27.4980,-83.7220,100.08,1111122 
COMPS,ioos:station:USF.COMPS:C12:1,2017-03-03T18:35:00Z,27.4980,-83.7220,100.07,1111122 
COMPS,ioos:station:USF.COMPS:C12:1,2017-03-03T19:05:00Z,27.4980,-83.7220,100.08,1111122 
COMPS,ioos:station:USF.COMPS:C12:1,2017-03-03T19:35:00Z,27.4980,-83.7220,100.07,1111122 
COMPS,ioos:station:USF.COMPS:C12:1,2017-03-03T20:05:00Z,27.4980,-83.7220,100.06,1111122 
COMPS,ioos:station:USF.COMPS:C12:1,2017-03-03T20:35:00Z,27.4980,-83.7220,100.07,1111122 
COMPS,ioos:station:USF.COMPS:C12:1,2017-03-03T21:05:00Z,27.4980,-83.7220,100.06,1111122 
COMPS,ioos:station:USF.COMPS:C12:1,2017-03-03T21:35:00Z,27.4980,-83.7220,100.07,1111122 
COMPS,ioos:station:USF.COMPS:C12:1,2017-03-03T22:05:00Z,27.4980,-83.7220,100.08,1111122 
COMPS,ioos:station:USF.COMPS:C12:1,2017-03-03T22:35:00Z,27.4980,-83.7220,100.07,1111122 
COMPS,ioos:station:USF.COMPS:C12:1,2017-03-03T23:05:00Z,27.4980,-83.7220,100.07,1111122 
COMPS,ioos:station:USF.COMPS:C12:1,2017-03-03T23:35:00Z,27.4980,-83.7220,100.08,1111122 
COMPS,ioos:station:USF.COMPS:C12:1,2017-03-04T00:05:00Z,27.4980,-83.7220,100.07,1111122 
COMPS,ioos:station:USF.COMPS:C12:1,2017-03-04T00:35:00Z,27.4980,-83.7220,100.08,1111122 
COMPS,ioos:station:USF.COMPS:C12:1,2017-03-04T01:05:00Z,27.4980,-83.7220,100.09,1111122 
COMPS,ioos:station:USF.COMPS:C12:1,2017-03-04T01:35:00Z,27.4980,-83.7220,100.09,1111122 
COMPS,ioos:station:USF.COMPS:C12:1,2017-03-04T02:05:00Z,27.4980,-83.7220,100.07,1111122 
COMPS,ioos:station:USF.COMPS:C12:1,2017-03-04T02:35:00Z,27.4980,-83.7220,100.07,1111122 
COMPS,ioos:station:USF.COMPS:C12:1,2017-03-04T03:05:00Z,27.4980,-83.7220,100.08,1111122 
COMPS,ioos:station:USF.COMPS:C12:1,2017-03-04T03:35:00Z,27.4980,-83.7220,100.09,1111122 
COMPS,ioos:station:USF.COMPS:C12:1,2017-03-04T04:05:00Z,27.4980,-83.7220,100.08,1111122 
COMPS,ioos:station:USF.COMPS:C12:1,2017-03-04T04:35:00Z,27.4980,-83.7220,100.08,1111122 
COMPS,ioos:station:USF.COMPS:C12:1,2017-03-04T05:05:00Z,27.4980,-83.7220,100.07,1111122 
COMPS,ioos:station:USF.COMPS:C12:1,2017-03-04T05:35:00Z,27.4980,-83.7220,100.07,1111122 
COMPS,ioos:station:USF.COMPS:C12:1,2017-03-04T06:05:00Z,27.4980,-83.7220,100.07,1111122 
COMPS,ioos:station:USF.COMPS:C12:1,2017-03-04T06:35:00Z,27.4980,-83.7220,100.07,1111122 
COMPS,ioos:station:USF.COMPS:C12:1,2017-03-04T07:05:00Z,27.4980,-83.7220,100.07,1111122 
COMPS,ioos:station:USF.COMPS:C12:1,2017-03-04T07:35:00Z,27.4980,-83.7220,100.07,1111122 
COMPS,ioos:station:USF.COMPS:C12:1,2017-03-04T08:05:00Z,27.4980,-83.7220,100.07,1111122 
COMPS,ioos:station:USF.COMPS:C12:1,2017-03-04T08:35:00Z,27.4980,-83.7220,100.08,1111122 
COMPS,ioos:station:USF.COMPS:C12:1,2017-03-04T09:05:00Z,27.4980,-83.7220,95.49,1111122 
COMPS,ioos:station:USF.COMPS:C12:1,2017-03-04T09:35:00Z,27.4980,-83.7220,89.55,1111122 
COMPS,ioos:station:USF.COMPS:C12:1,2017-03-04T10:05:00Z,27.4980,-83.7220,84.81,1111122 
COMPS,ioos:station:USF.COMPS:C12:1,2017-03-04T10:35:00Z,27.4980,-83.7220,93.54,1111122 
COMPS,ioos:station:USF.COMPS:C12:1,2017-03-04T11:05:00Z,27.4980,-83.7220,82.36,1111122 
COMPS,ioos:station:USF.COMPS:C12:1,2017-03-04T11:35:00Z,27.4980,-83.7220,88.93,1111122 
COMPS,ioos:station:USF.COMPS:C12:1,2017-03-04T12:05:00Z,27.4980,-83.7220,86.03,1111122 
COMPS,ioos:station:USF.COMPS:C12:1,2017-03-04T12:35:00Z,27.4980,-83.7220,74.84,1111122 
COMPS,ioos:station:USF.COMPS:C12:1,2017-03-04T13:05:00Z,27.4980,-83.7220,66.3,1111122 
COMPS,ioos:station:USF.COMPS:C12:1,2017-03-04T13:35:00Z,27.4980,-83.7220,67.81,1111122 
COMPS,ioos:station:USF.COMPS:C12:1,2017-03-04T14:05:00Z,27.4980,-83.7220,68.13,1111122 
COMPS,ioos:station:USF.COMPS:C12:1,2017-03-04T14:35:00Z,27.4980,-83.7220,69.26,1111122 
COMPS,ioos:station:USF.COMPS:C12:1,2017-03-04T15:05:00Z,27.4980,-83.7220,72.91,1111122 
COMPS,ioos:station:USF.COMPS:C12:1,2017-03-04T15:35:00Z,27.4980,-83.7220,72.16,1111122 
COMPS,ioos:station:USF.COMPS:C12:1,2017-03-04T16:05:00Z,27.4980,-83.7220,72.05,1111122 
COMPS,ioos:station:USF.COMPS:C12:1,2017-03-04T16:35:00Z,27.4980,-83.7220,73.93,1111122 
COMPS,ioos:station:USF.COMPS:C12:1,2017-03-04T17:05:00Z,27.4980,-83.7220,75.44,1111122 
COMPS,ioos:station:USF.COMPS:C12:1,2017-03-04T17:35:00Z,27.4980,-83.7220,75.14,1111122 
COMPS,ioos:station:USF.COMPS:C12:1,2017-03-04T18:05:00Z,27.4980,-83.7220,74.0,1111122 
COMPS,ioos:station:USF.COMPS:C12:1,2017-03-04T18:35:00Z,27.4980,-83.7220,73.64,1111122 
COMPS,ioos:station:USF.COMPS:C12:1,2017-03-04T19:05:00Z,27.4980,-83.7220,73.67,1111122 
COMPS,ioos:station:USF.COMPS:C12:1,2017-03-04T19:35:00Z,27.4980,-83.7220,74.43,1111122 
COMPS,ioos:station:USF.COMPS:C12:1,2017-03-04T20:05:00Z,27.4980,-83.7220,74.72,1111122 
COMPS,ioos:station:USF.COMPS:C12:1,2017-03-04T20:35:00Z,27.4980,-83.7220,75.67,1111122 
COMPS,ioos:station:USF.COMPS:C12:1,2017-03-04T21:05:00Z,27.4980,-83.7220,76.85,1111122 
COMPS,ioos:station:USF.COMPS:C12:1,2017-03-04T21:35:00Z,27.4980,-83.7220,77.22,1111122 
COMPS,ioos:station:USF.COMPS:C12:1,2017-03-04T22:05:00Z,27.4980,-83.7220,75.96,1111122 
COMPS,ioos:station:USF.COMPS:C12:1,2017-03-04T22:35:00Z,27.4980,-83.7220,77.74,1111122 
COMPS,ioos:station:USF.COMPS:C12:1,2017-03-04T23:05:00Z,27.4980,-83.7220,77.63,1111122 
COMPS,ioos:station:USF.COMPS:C12:1,2017-03-04T23:35:00Z,27.4980,-83.7220,76.87,1111122 
COMPS,ioos:station:USF.COMPS:C12:1,2017-03-05T00:05:00Z,27.4980,-83.7220,77.09,1111122 
COMPS,ioos:station:USF.COMPS:C12:1,2017-03-05T00:35:00Z,27.4980,-83.7220,77.79,1111122 
COMPS,ioos:station:USF.COMPS:C12:1,2017-03-05T01:05:00Z,27.4980,-83.7220,77.92,1111122 
COMPS,ioos:station:USF.COMPS:C12:1,2017-03-05T01:35:00Z,27.4980,-83.7220,80.41,1111122 
COMPS,ioos:station:USF.COMPS:C12:1,2017-03-05T02:05:00Z,27.4980,-83.7220,84.18,1111122 
COMPS,ioos:station:USF.COMPS:C12:1,2017-03-05T02:35:00Z,27.4980,-83.7220,85.91,1111122 
COMPS,ioos:station:USF.COMPS:C12:1,2017-03-05T03:05:00Z,27.4980,-83.7220,79.52,1111122 
COMPS,ioos:station:USF.COMPS:C12:1,2017-03-05T03:35:00Z,27.4980,-83.7220,75.43,1111122 
COMPS,ioos:station:USF.COMPS:C12:1,2017-03-05T04:05:00Z,27.4980,-83.7220,71.43,1111122 
COMPS,ioos:station:USF.COMPS:C12:1,2017-03-05T04:35:00Z,27.4980,-83.7220,71.4,1111122 
COMPS,ioos:station:USF.COMPS:C12:1,2017-03-05T05:05:00Z,27.4980,-83.7220,70.11,1111122 
COMPS,ioos:station:USF.COMPS:C12:1,2017-03-05T05:35:00Z,27.4980,-83.7220,72.54,1111122 
COMPS,ioos:station:USF.COMPS:C12:1,2017-03-05T06:05:00Z,27.4980,-83.7220,78.05,1111122 
COMPS,ioos:station:USF.COMPS:C12:1,2017-03-05T06:35:00Z,27.4980,-83.7220,82.2,1111122 
COMPS,ioos:station:USF.COMPS:C12:1,2017-03-05T07:05:00Z,27.4980,-83.7220,86.52,1111122 
COMPS,ioos:station:USF.COMPS:C12:1,2017-03-05T07:35:00Z,27.4980,-83.7220,89.14,1111122 
COMPS,ioos:station:USF.COMPS:C12:1,2017-03-05T08:05:00Z,27.4980,-83.7220,92.48,1111122 
COMPS,ioos:station:USF.COMPS:C12:1,2017-03-05T08:35:00Z,27.4980,-83.7220,96.53,1111122 
COMPS,ioos:station:USF.COMPS:C12:1,2017-03-05T09:05:00Z,27.4980,-83.7220,99.85,1111122 
COMPS,ioos:station:USF.COMPS:C12:1,2017-03-05T09:35:00Z,27.4980,-83.7220,100.08,1111122 
COMPS,ioos:station:USF.COMPS:C12:1,2017-03-05T10:05:00Z,27.4980,-83.7220,100.06,1111122 
COMPS,ioos:station:USF.COMPS:C12:1,2017-03-05T10:35:00Z,27.4980,-83.7220,100.08,1111122 
COMPS,ioos:station:USF.COMPS:C12:1,2017-03-05T11:05:00Z,27.4980,-83.7220,100.07,1111122 
COMPS,ioos:station:USF.COMPS:C12:1,2017-03-05T11:35:00Z,27.4980,-83.7220,100.07,1111122 
COMPS,ioos:station:USF.COMPS:C12:1,2017-03-05T12:05:00Z,27.4980,-83.7220,100.08,1111122 
COMPS,ioos:station:USF.COMPS:C12:1,2017-03-05T12:35:00Z,27.4980,-83.7220,100.07,1111122 
COMPS,ioos:station:USF.COMPS:C12:1,2017-03-05T13:05:00Z,27.4980,-83.7220,100.06,1111122 
COMPS,ioos:station:USF.COMPS:C12:1,2017-03-05T13:35:00Z,27.4980,-83.7220,100.07,1111122 
COMPS,ioos:station:USF.COMPS:C12:1,2017-03-05T14:05:00Z,27.4980,-83.7220,100.09,1111122 
COMPS,ioos:station:USF.COMPS:C12:1,2017-03-05T14:35:00Z,27.4980,-83.7220,100.09,1111122 
COMPS,ioos:station:USF.COMPS:C12:1,2017-03-05T15:05:00Z,27.4980,-83.7220,100.09,1111122 
COMPS,ioos:station:USF.COMPS:C12:1,2017-03-05T15:35:00Z,27.4980,-83.7220,100.07,1111122 
COMPS,ioos:station:USF.COMPS:C12:1,2017-03-05T16:05:00Z,27.4980,-83.7220,100.09,1111122 
COMPS,ioos:station:USF.COMPS:C12:1,2017-03-05T16:35:00Z,27.4980,-83.7220,100.08,1111122 
COMPS,ioos:station:USF.COMPS:C12:1,2017-03-05T17:05:00Z,27.4980,-83.7220,100.08,1111122 
COMPS,ioos:station:USF.COMPS:C12:1,2017-03-05T17:35:00Z,27.4980,-83.7220,100.09,1111122 
COMPS,ioos:station:USF.COMPS:C12:1,2017-03-05T18:05:00Z,27.4980,-83.7220,100.07,1111122 
COMPS,ioos:station:USF.COMPS:C12:1,2017-03-05T18:35:00Z,27.4980,-83.7220,100.08,1111122 
COMPS,ioos:station:USF.COMPS:C12:1,2017-03-05T19:05:00Z,27.4980,-83.7220,100.08,1111122 
COMPS,ioos:station:USF.COMPS:C12:1,2017-03-05T19:35:00Z,27.4980,-83.7220,100.08,1111122 
COMPS,ioos:station:USF.COMPS:C12:1,2017-03-05T20:05:00Z,27.4980,-83.7220,100.08,1111122 
COMPS,ioos:station:USF.COMPS:C12:1,2017-03-05T20:35:00Z,27.4980,-83.7220,100.1,1111122 
COMPS,ioos:station:USF.COMPS:C12:1,2017-03-05T21:05:00Z,27.4980,-83.7220,99.22,1111122 
COMPS,ioos:station:USF.COMPS:C12:1,2017-03-05T21:35:00Z,27.4980,-83.7220,96.27,1111122 
COMPS,ioos:station:USF.COMPS:C12:1,2017-03-05T22:05:00Z,27.4980,-83.7220,94.54,1111122 
COMPS,ioos:station:USF.COMPS:C12:1,2017-03-05T22:35:00Z,27.4980,-83.7220,94.35,1111122 
COMPS,ioos:station:USF.COMPS:C12:1,2017-03-05T23:05:00Z,27.4980,-83.7220,93.69,1111122 
COMPS,ioos:station:USF.COMPS:C12:1,2017-03-05T23:35:00Z,27.4980,-83.7220,95.34,1111122 
COMPS,ioos:station:USF.COMPS:C12:1,2017-03-06T00:05:00Z,27.4980,-83.7220,98.31,1111122 
COMPS,ioos:station:USF.COMPS:C12:1,2017-03-06T00:35:00Z,27.4980,-83.7220,96.6,1111122 
COMPS,ioos:station:USF.COMPS:C12:1,2017-03-06T01:05:00Z,27.4980,-83.7220,98.1,1111122 
COMPS,ioos:station:USF.COMPS:C12:1,2017-03-06T01:35:00Z,27.4980,-83.7220,98.27,1111122 
COMPS,ioos:station:USF.COMPS:C12:1,2017-03-06T02:05:00Z,27.4980,-83.7220,96.17,1111122 
COMPS,ioos:station:USF.COMPS:C12:1,2017-03-06T02:35:00Z,27.4980,-83.7220,95.9,1111122 
COMPS,ioos:station:USF.COMPS:C12:1,2017-03-06T03:05:00Z,27.4980,-83.7220,97.16,1111122 
COMPS,ioos:station:USF.COMPS:C12:1,2017-03-06T03:35:00Z,27.4980,-83.7220,100.01,1111122 
COMPS,ioos:station:USF.COMPS:C12:1,2017-03-06T04:05:00Z,27.4980,-83.7220,99.85,1111122 
COMPS,ioos:station:USF.COMPS:C12:1,2017-03-06T04:35:00Z,27.4980,-83.7220,97.58,1111122 
COMPS,ioos:station:USF.COMPS:C12:1,2017-03-06T05:05:00Z,27.4980,-83.7220,98.98,1111122 
COMPS,ioos:station:USF.COMPS:C12:1,2017-03-06T05:35:00Z,27.4980,-83.7220,97.69,1111122 
COMPS,ioos:station:USF.COMPS:C12:1,2017-03-06T06:05:00Z,27.4980,-83.7220,97.33,1111122 
COMPS,ioos:station:USF.COMPS:C12:1,2017-03-06T06:35:00Z,27.4980,-83.7220,98.64,1111122 
COMPS,ioos:station:USF.COMPS:C12:1,2017-03-06T07:05:00Z,27.4980,-83.7220,98.75,1111122 
COMPS,ioos:station:USF.COMPS:C12:1,2017-03-06T07:35:00Z,27.4980,-83.7220,100.08,1111122 
COMPS,ioos:station:USF.COMPS:C12:1,2017-03-06T08:05:00Z,27.4980,-83.7220,100.08,1111122 
COMPS,ioos:station:USF.COMPS:C12:1,2017-03-06T08:35:00Z,27.4980,-83.7220,100.09,1111122 
COMPS,ioos:station:USF.COMPS:C12:1,2017-03-06T09:05:00Z,27.4980,-83.7220,99.97,1111122 
COMPS,ioos:station:USF.COMPS:C12:1,2017-03-06T09:35:00Z,27.4980,-83.7220,99.09,1111122 
COMPS,ioos:station:USF.COMPS:C12:1,2017-03-06T10:05:00Z,27.4980,-83.7220,96.46,1111122 
COMPS,ioos:station:USF.COMPS:C12:1,2017-03-06T10:35:00Z,27.4980,-83.7220,96.52,1111122 
COMPS,ioos:station:USF.COMPS:C12:1,2017-03-06T11:05:00Z,27.4980,-83.7220,98.4,1111122 
COMPS,ioos:station:USF.COMPS:C12:1,2017-03-06T11:35:00Z,27.4980,-83.7220,98.94,1111122 
COMPS,ioos:station:USF.COMPS:C12:1,2017-03-06T12:05:00Z,27.4980,-83.7220,98.61,1111122 
COMPS,ioos:station:USF.COMPS:C12:1,2017-03-06T12:35:00Z,27.4980,-83.7220,99.64,1111122 
COMPS,ioos:station:USF.COMPS:C12:1,2017-03-06T13:05:00Z,27.4980,-83.7220,100.08,1111122 
COMPS,ioos:station:USF.COMPS:C12:1,2017-03-06T13:35:00Z,27.4980,-83.7220,100.09,1111122 
COMPS,ioos:station:USF.COMPS:C12:1,2017-03-06T14:05:00Z,27.4980,-83.7220,100.09,1111122 
COMPS,ioos:station:USF.COMPS:C12:1,2017-03-06T14:35:00Z,27.4980,-83.7220,100.08,1111122 
COMPS,ioos:station:USF.COMPS:C12:1,2017-03-06T15:05:00Z,27.4980,-83.7220,100.08,1111122 